Tuesday, May 24, 2016
21:35 UTC
  |  Log In   |  Register Free
Airport Search:

Francis E Warren Afb Airport
(KFEW)

Francis E Warren Afb Airport Diagram
No Airport Diagram Available

FAA data valid effective Mar 31 2016 - May 26 2016 (unless otherwise noted).

 
 
 
 
 
 
 
 
 
 
 
 
 
 
Summary: Francis E Warren Afb (FEW)

Weather Summary


METAR for KFEW is not available. Closest METAR is for KCYS
KFEW  (most recent observation was updatred at 24:20 UTC)
242058Z AUTO 19010G24KT 10SM FEW048 SCT130 18/07 A2993 RMK AO2 PK WND 17026/13 SLP089 T01780066 57016 $

KCYS  (2.9 nm SW)   (most recent observation was updated at 24:20 UTC)
242053Z 17014G27KT 10SM FEW055 19/06 A2991

K82V  (33.1 nm SW)   (most recent observation was updated at 24:21 UTC)
242115Z AUTO 14016G20KT 10SM SCT055 BKN080 BKN110 19/07 A2990 RMK AO2

TAF for KFEW is not available.
KCYS  (2.9 nm SW)   (most recent observation was updatred at 24:17 UTC)
241729Z 2418/2518 17018G28KT P6SM VCTS BKN050CB TEMPO 2419/2423 VRB30G40KT 3SM -TSRA BKN020CB FM242300 17011KT P6SM SCT150 FM250500 27010KT P6SM SCT150 FM251500 26018G28KT P6SM SCT100


GlobalAir.com is loading additional information.
Current weather conditions are not available for FEW.

The nearest NOAA weather station is at CYS (2.5 nm NE from FEW)
 Current Weather at CYS
66.0 F° (18.9 C°)
Fair and Windy
South winds at 26.5 mph
Pressure:
29.93 in
Humidity:
43%
Wind:
from the South at 26.5 gusting to 36.8 MPH (23 gusting to 32 KT)
Dew Point:
43.0 F° (6.1 C°)
Visibility:
10.00 mi
FEW NOAA Radar

Runway Summary

ID Dimensions Surface Instrument Approaches
H1 65 ft x 65 ft Bituminous Concrete, Good Condition N/A
H2 50 ft x 50 ft Bituminous Concrete N/A

Communications Summary


CTAFN/A
UNICOMN/A
ATISN/A
CLEARANCE DELIVERYN/A

Terminal Procedures Summary


No terminal procedures available for FEW





Closest Alternate Airports with Instrument Procedures

KCYS - Cheyenne Regional/Jerry Olson Field - 3.3 nm NE from FEW

KLAR - Laramie Regional - 43.8 nm NW from FEW

KFNL - Fort Collins-Loveland Municipal - 47.7 nm SW from FEW

KGXY - Greeley-Weld County - 49.7 nm SE from FEW

KIBM - Kimball Municipal/Robert E Arraj Field - 62.1 nm NE from FEW

KLMO - Vance Brand - 68.8 nm SW from FEW

KTOR - Torrington Municipal - 74.2 nm NE from FEW

KEIK - Erie Municipal - 78.3 nm SW from FEW

KBFF - Western Neb. Regional/William B. Heilig Field - 83.4 nm NE from FEW

KBJC - Rocky Mountain Metropolitan - 85.7 nm SW from FEW

Find All Airport Services Find A Hotel Find A Rental Car Find A Golf Course Find A Restaurant $100 Hamburger



FBO's on the Field
FBO Company Facility Photos Services Transportation Aviation Fuel Prices: Prices include tax
Catering Weather Repair Courtesy Rental Type 100LL JetA JetA+ MOGAS 8087
 
Add another FBO Facility Photos Catering Weather Repair Courtesy Rental Type 100LL JetA JetA+ MOGAS 8087
Services Transportation Aviation Fuel Prices: Prices include tax
There are no FBO's currently reporting fuel at FEW. List your FBO now


model-print
model-print
model-print
model-print